Home   Weather   Gummersbach   Past weeks

Flag for Germany Past Weather in Gummersbach, North Rhine-Westphalia, Germany — Yesterday and Last 2 Weeks

Now
52 °F

Sunny.


Feels Like: 49 °F
Forecast: 40 / 44 °F
Wind: 9 mph from South

Location: Koeln / Bonn

Current Time: Dec 10, 2016 at 1:39:47 pm

Latest Report: Dec 10, 2016 at 12:50 pm


Visibility: 10 mi

Pressure: 30.24 "Hg

Humidity: 62%

Dew Point: 39 °F

Location of GummersbachLocation

Past Weather in Gummersbach — Graph

°F

Gummersbach Temperature Yesterday

Maximum temperature yesterday: 50 °F (at 2:20 pm)
Minimum temperature yesterday: 41 °F (at 12:20 am)
Average temperature yesterday: 46 °F

High & Low Weather Summary for the Past Weeks

 TemperatureHumidityPressure
High52 °F (Nov 25, 1:50 pm)100% (Nov 26, 11:20 pm)30.57 "Hg (Nov 26, 11:20 pm)
Low18 °F (Nov 30, 6:50 am)44% (Nov 25, 3:20 pm)30.07 "Hg (Nov 26, 12:50 pm)
Average36 °F82%30.33 "Hg
* Reported Nov 25 12:20 pm — Dec 10 12:20 pm, Gummersbach, Weather by CustomWeather, © 2016

Note: Actual official high and low records may vary slightly from our data, if they occured in-between our weather recording intervals... More about our weather records

Advertising

Gummersbach Weather History for the Previous 24 Hours

Scroll right to see more
 ConditionsComfort  
Time TempWeatherWind HumidityBarometerVisibility
12:20 pm
Sat, Dec 10
48 °FSunny.10 mph71%30.24 "Hg10 mi
11:50 am48 °FSunny.12 mph71%30.24 "Hg10 mi
11:20 am46 °FSunny.9 mph76%30.27 "Hg10 mi
10:50 am45 °FSunny.9 mph81%30.27 "Hg10 mi
10:20 am43 °FSunny.9 mph81%30.27 "Hg10 mi
9:50 am43 °FPassing clouds.3 mph81%30.27 "HgN/A
9:20 am39 °FPassing clouds.6 mph93%30.27 "HgN/A
8:50 am39 °FPassing clouds.5 mph87%30.27 "HgN/A
8:20 am39 °FPassing clouds.5 mph93%30.27 "HgN/A
7:50 am39 °FClear.2 mph93%30.27 "Hg10 mi
7:20 am41 °FPassing clouds.5 mph87%30.24 "HgN/A
6:50 am41 °FClear.8 mph87%30.24 "Hg10 mi
6:20 am41 °FPassing clouds.6 mph87%30.27 "HgN/A
5:50 am41 °FClear.8 mph87%30.27 "Hg10 mi
5:20 am41 °FClear.8 mph87%30.27 "Hg10 mi
4:50 am41 °FClear.7 mph87%30.27 "Hg10 mi
4:20 am43 °FClear.7 mph81%30.30 "Hg10 mi
3:50 am41 °FClear.8 mph87%30.30 "Hg10 mi
3:20 am41 °FClear.10 mph87%30.30 "Hg10 mi
2:50 am41 °FClear.8 mph87%30.30 "Hg10 mi
2:20 am41 °FClear.6 mph87%30.30 "Hg10 mi
1:50 am41 °FClear.8 mph87%30.30 "Hg10 mi
1:20 am43 °FPassing clouds.8 mph81%30.33 "HgN/A
12:50 am43 °FClear.6 mph81%30.33 "Hg10 mi
12:20 am43 °FPassing clouds.3 mph81%30.33 "HgN/A
11:50 pm
Fri, Dec 9
43 °FClear.7 mph81%30.33 "Hg10 mi
11:20 pm43 °FClear.6 mph81%30.33 "Hg10 mi
10:50 pm45 °FPassing clouds.5 mph81%30.33 "HgN/A
10:20 pm45 °FClear.6 mph81%30.36 "Hg10 mi
9:50 pm45 °FClear.7 mph81%30.36 "Hg10 mi
9:20 pm45 °FClear.6 mph81%30.36 "Hg10 mi
8:50 pm46 °FPassing clouds.6 mph76%30.36 "HgN/A
8:20 pm46 °FPassing clouds.7 mph76%30.36 "HgN/A
7:50 pm48 °FPassing clouds.6 mph76%30.36 "HgN/A
7:20 pm48 °FPassing clouds.6 mph76%30.36 "HgN/A
6:50 pm48 °FPassing clouds.7 mph76%30.36 "HgN/A
6:20 pm48 °FPassing clouds.7 mph76%30.36 "HgN/A
5:50 pm48 °FPassing clouds.7 mph76%30.39 "HgN/A
5:20 pm48 °FPassing clouds.7 mph82%30.39 "HgN/A
4:50 pm48 °FPassing clouds.6 mph82%30.39 "HgN/A
4:20 pm50 °FBroken clouds.5 mph76%30.39 "HgN/A
3:50 pm50 °FBroken clouds.3 mph76%30.39 "HgN/A
3:20 pm50 °FPartly sunny.6 mph76%30.36 "HgN/A
2:50 pm50 °FPartly sunny.7 mph76%30.36 "HgN/A
2:20 pm50 °FPartly sunny.5 mph76%30.39 "HgN/A
1:50 pm48 °FPartly sunny.7 mph82%30.39 "HgN/A
1:20 pm48 °FPartly sunny.5 mph82%30.39 "HgN/A
Weather by CustomWeather, © 2016

See weather overviewHow to use our weather pages